Location: Isle of Man Observatory
(54.1776°N, 4.6264°W)
Time: 05:05:35
(UTC+01:00)

OTV 5 (USA 277) - Visible Passes

Search period start: 25 February 2018 00:00
Search period end: 07 March 2018 00:00
Orbit: 404 x 417 km, 43.0° (Epoch: 07 September)

Date Brightness Start Highest point End Pass type
(mag) Time Alt. Az. Time Alt. Az. Time Alt. Az.
25 Feb ? 07:22:32 10° SSW 07:23:55 12° S 07:25:17 10° SSE visible
26 Feb ? 06:31:55 10° SSW 06:33:04 11° S 06:34:13 10° SSE visible
27 Feb ? 07:17:19 10° SSW 07:18:38 12° S 07:19:57 10° SSE visible
28 Feb ? 06:27:08 12° SSW 06:27:48 12° S 06:29:13 10° SSE visible
02 Mar ? 06:22:25 11° SSW 06:22:31 11° S 06:23:29 10° S visible
